STARLINK-31898 (59905 NORAD) Tracking and Keplerian Element Data

This shows tracking and keplerian element data for the satellite.

Feedback or suggestion? Click here.




ElementValue
Catalog59905
NameSTARLINK-31898
Epoch Orbit291
Epoch Day160.16667824
Epoch Year2024
RAAN174.2993
Inclination43.0031
Eccentricity0.0001545
Argument of Perigee270.805
Mean Anonmoly346.6827
Mean Motion15.79887937
Decay Rate-0.01121799
L11 59905U 24100W 24160.16667824 -.01121799 00000+0 -65633-2 0 9994
L22 59905 43.0031 174.2993 0001545 270.8050 346.6827 15.79887937 2915



Live tracking and technical data element details for STARLINK-31898 (NORAD 59905). STARLINK-31898 can be tracked NOW for your location showing map with azimuth and elevation plus other details from your city location.







IsCatalogInMostPopularTable: catalog: 59905, numindb: 6
Update: records affected: 1



GetName: 59905 STARLINK-31898

Hit Count: updated at: Tue, 16 Jul 2024 04:09:44 GMT